• In Belarus
  • List of Countries
  • For 7 days
  • Water Temperature
  • Weather Map
  • Weather Widgets
  • user-avatar
    Login

    Hourly Weather Berat

    Today, 6 April, Monday

    Time Temperature Precipitation Wind Pressure Humidity
    00:00 +10°C° 0 mm 3 mps 747 mmHg 74%
    01:00 +10°C° 0 mm 3 mps 747 mmHg 76%
    02:00 +9°C° 0 mm 3 mps 747 mmHg 77%
    03:00 +9°C° 0 mm 3 mps 747 mmHg 78%
    04:00 +9°C° 0 mm 3 mps 747 mmHg 79%
    05:00 +10°C° 0 mm 3 mps 748 mmHg 77%
    06:00 +10°C° 0 mm 3 mps 749 mmHg 76%
    07:00 +11°C° 0 mm 3 mps 749 mmHg 74%
    08:00 +12°C° 0 mm 3 mps 749 mmHg 67%
    09:00 +13°C° 0 mm 4 mps 750 mmHg 61%
    10:00 +14°C° 0 mm 4 mps 750 mmHg 54%
    11:00 +15°C° 0 mm 4 mps 750 mmHg 52%
    12:00 +15°C° 0 mm 4 mps 750 mmHg 51%
    13:00 +17°C° 0 mm 4 mps 750 mmHg 50%
    14:00 +15°C° 0 mm 4 mps 750 mmHg 51%
    15:00 +15°C° 0 mm 4 mps 750 mmHg 51%
    16:00 +15°C° 0 mm 4 mps 750 mmHg 52%
    17:00 +13°C° 0 mm 4 mps 750 mmHg 56%
    18:00 +12°C° 0 mm 3 mps 750 mmHg 60%
    19:00 +11°C° 0 mm 3 mps 750 mmHg 64%
    20:00 +10°C° 0 mm 3 mps 751 mmHg 66%
    21:00 +10°C° 0 mm 2 mps 751 mmHg 67%
    22:00 +9°C° 0 mm 2 mps 752 mmHg 69%
    23:00 +9°C° 0 mm 2 mps 752 mmHg 69%

    Tomorrow, 7 April, Tuesday

    Time Temperature Precipitation Wind Pressure Humidity
    00:00 +9°C° 0 mm 2 mps 752 mmHg 69%
    01:00 +8°C° 0 mm 2 mps 751 mmHg 68%
    02:00 +8°C° 0 mm 2 mps 751 mmHg 67%
    03:00 +8°C° 0 mm 2 mps 751 mmHg 66%
    04:00 +8°C° 0 mm 2 mps 751 mmHg 64%
    05:00 +9°C° 0 mm 2 mps 751 mmHg 63%
    06:00 +9°C° 0 mm 2 mps 752 mmHg 61%
    07:00 +10°C° 0 mm 2 mps 752 mmHg 60%
    08:00 +12°C° 0 mm 3 mps 752 mmHg 50%
    09:00 +14°C° 0 mm 3 mps 752 mmHg 41%
    10:00 +15°C° 0 mm 4 mps 752 mmHg 31%
    11:00 +17°C° 0 mm 4 mps 752 mmHg 30%
    12:00 +17°C° 0 mm 5 mps 752 mmHg 30%
    13:00 +17°C° 0 mm 5 mps 752 mmHg 29%
    14:00 +17°C° 0 mm 5 mps 752 mmHg 32%
    15:00 +17°C° 0 mm 4 mps 752 mmHg 34%
    16:00 +17°C° 0 mm 4 mps 751 mmHg 36%
    17:00 +14°C° 0 mm 4 mps 752 mmHg 41%
    18:00 +13°C° 0 mm 3 mps 752 mmHg 46%
    19:00 +11°C° 0 mm 3 mps 752 mmHg 51%
    20:00 +10°C° 0 mm 3 mps 752 mmHg 52%
    21:00 +10°C° 0 mm 2 mps 752 mmHg 53%
    22:00 +9°C° 0 mm 2 mps 753 mmHg 54%
    23:00 +9°C° 0 mm 2 mps 752 mmHg 55%

    Day after tomorrow, 8 April, Wednesday

    Time Temperature Precipitation Wind Pressure Humidity
    00:00 +8°C° 0 mm 2 mps 752 mmHg 56%
    01:00 +8°C° 0 mm 2 mps 752 mmHg 57%
    02:00 +8°C° 0 mm 2 mps 752 mmHg 58%
    03:00 +7°C° 0 mm 2 mps 752 mmHg 59%
    04:00 +7°C° 0 mm 2 mps 752 mmHg 60%
    05:00 +8°C° 0 mm 2 mps 752 mmHg 60%
    06:00 +9°C° 0 mm 2 mps 751 mmHg 60%
    07:00 +10°C° 0 mm 2 mps 751 mmHg 60%
    08:00 +13°C° 0 mm 2 mps 751 mmHg 52%
    09:00 +14°C° 0 mm 3 mps 751 mmHg 45%
    10:00 +16°C° 0 mm 3 mps 751 mmHg 37%
    11:00 +17°C° 0 mm 3 mps 751 mmHg 36%
    12:00 +18°C° 0 mm 3 mps 750 mmHg 34%
    13:00 +19°C° 0 mm 3 mps 750 mmHg 33%
    14:00 +19°C° 0 mm 3 mps 750 mmHg 35%
    15:00 +18°C° 0 mm 3 mps 749 mmHg 37%
    16:00 +18°C° 0 mm 3 mps 749 mmHg 39%
    17:00 +16°C° 0 mm 2 mps 749 mmHg 46%
    18:00 +14°C° 0 mm 2 mps 749 mmHg 53%
    19:00 +12°C° 0 mm 1 mps 749 mmHg 61%
    20:00 +11°C° 0 mm 1 mps 749 mmHg 60%
    21:00 +11°C° 0 mm 1 mps 749 mmHg 60%
    22:00 +10°C° 0 mm 2 mps 749 mmHg 60%
    23:00 +9°C° 0 mm 2 mps 749 mmHg 59%

    9 April, Thursday

    Time Temperature Precipitation Wind Pressure Humidity
    00:00 +9°C° 0 mm 2 mps 749 mmHg 58%
    01:00 +9°C° 0 mm 2 mps 749 mmHg 58%
    02:00 +9°C° 0 mm 2 mps 749 mmHg 58%
    03:00 +8°C° 0 mm 2 mps 748 mmHg 58%
    04:00 +8°C° 0 mm 2 mps 748 mmHg 58%
    05:00 +9°C° 0 mm 2 mps 748 mmHg 58%
    06:00 +11°C° 0 mm 1 mps 748 mmHg 57%
    07:00 +12°C° 0 mm 1 mps 748 mmHg 57%
    08:00 +14°C° 0 mm 1 mps 748 mmHg 51%
    09:00 +16°C° 0 mm 1 mps 748 mmHg 45%
    10:00 +19°C° 0 mm 1 mps 748 mmHg 39%
    11:00 +19°C° 0 mm 2 mps 748 mmHg 40%
    12:00 +19°C° 0 mm 2 mps 747 mmHg 40%
    13:00 +20°C° 0 mm 3 mps 747 mmHg 41%
    14:00 +19°C° 0 mm 3 mps 747 mmHg 46%
    15:00 +19°C° 0 mm 3 mps 746 mmHg 51%
    16:00 +18°C° 0 mm 3 mps 746 mmHg 56%
    17:00 +16°C° 0 mm 2 mps 746 mmHg 63%
    18:00 +14°C° 0 mm 2 mps 746 mmHg 71%
    19:00 +12°C° 0 mm 1 mps 746 mmHg 79%
    20:00 +12°C° 0 mm 1 mps 746 mmHg 78%
    21:00 +12°C° 0 mm 1 mps 747 mmHg 76%
    22:00 +10°C° 0 mm 0 mps 747 mmHg 75%
    23:00 +11°C° 0 mm 1 mps 747 mmHg 75%

    10 April, Friday

    Time Temperature Precipitation Wind Pressure Humidity
    00:00 +11°C° 0 mm 1 mps 747 mmHg 74%
    01:00 +11°C° 0 mm 1 mps 747 mmHg 74%
    02:00 +11°C° 0 mm 1 mps 747 mmHg 73%
    03:00 +10°C° 0 mm 1 mps 746 mmHg 73%
    04:00 +10°C° 0 mm 1 mps 746 mmHg 72%
    05:00 +11°C° 0 mm 1 mps 747 mmHg 70%
    06:00 +13°C° 0 mm 1 mps 747 mmHg 67%
    07:00 +14°C° 0 mm 1 mps 747 mmHg 64%
    08:00 +16°C° 0 mm 1 mps 747 mmHg 58%
    09:00 +18°C° 0 mm 1 mps 747 mmHg 52%
    10:00 +20°C° 0 mm 1 mps 747 mmHg 47%
    11:00 +20°C° 0 mm 2 mps 747 mmHg 47%
    12:00 +20°C° 0 mm 2 mps 747 mmHg 47%
    13:00 +21°C° 0 mm 3 mps 746 mmHg 47%
    14:00 +20°C° 0 mm 3 mps 746 mmHg 51%
    15:00 +20°C° 0 mm 3 mps 746 mmHg 56%
    16:00 +19°C° 0 mm 3 mps 746 mmHg 60%
    17:00 +17°C° 0 mm 2 mps 746 mmHg 68%
    18:00 +15°C° 0 mm 1 mps 746 mmHg 75%
    19:00 +14°C° 0 mm 1 mps 746 mmHg 83%
    20:00 +13°C° 0 mm 1 mps 746 mmHg 82%
    21:00 +12°C° 0 mm 0 mps 746 mmHg 80%
    22:00 +12°C° 0 mm 0 mps 747 mmHg 79%
    23:00 +13°C° 0 mm 1 mps 747 mmHg 78%

    11 April, Saturday

    Time Temperature Precipitation Wind Pressure Humidity
    00:00 +12°C° 0 mm 1 mps 747 mmHg 77%
    01:00 +12°C° 0 mm 1 mps 747 mmHg 75%
    02:00 +12°C° 0 mm 1 mps 747 mmHg 74%
    03:00 +12°C° 0 mm 1 mps 747 mmHg 73%
    04:00 +12°C° 0 mm 1 mps 747 mmHg 73%
    05:00 +13°C° 0 mm 1 mps 747 mmHg 69%
    06:00 +14°C° 0 mm 1 mps 747 mmHg 66%
    07:00 +15°C° 0 mm 1 mps 747 mmHg 63%
    08:00 +18°C° 0 mm 1 mps 748 mmHg 58%
    09:00 +20°C° 0 mm 1 mps 748 mmHg 53%
    10:00 +21°C° 0 mm 1 mps 748 mmHg 48%
    11:00 +21°C° 0 mm 2 mps 748 mmHg 49%
    12:00 +21°C° 0 mm 2 mps 747 mmHg 50%
    13:00 +22°C° 0 mm 3 mps 747 mmHg 51%
    14:00 +21°C° 0 mm 3 mps 747 mmHg 55%
    15:00 +20°C° 0 mm 3 mps 747 mmHg 59%
    16:00 +20°C° 0 mm 3 mps 746 mmHg 63%
    17:00 +18°C° 0 mm 2 mps 746 mmHg 71%
    18:00 +16°C° 0 mm 1 mps 747 mmHg 78%
    19:00 +13°C° 0 mm 0 mps 747 mmHg 86%
    20:00 +13°C° 0 mm 0 mps 747 mmHg 86%
    21:00 +13°C° 0 mm 0 mps 747 mmHg 85%
    22:00 +12°C° 0 mm 0 mps 747 mmHg 85%
    23:00 +12°C° 0 mm 0 mps 747 mmHg 83%
    Show more